Location: *
(47.2969°N, 10.2930°E)
Time: 00:52:50
(UTC+00:00)

Cosmos 2228 - Pass Details

Date: 09 April 2020
Orbit: 588 x 619 km, 82.5° (Epoch: 03 June)

Event Time Altitude Azimuth Distance (km) Brightness Sun altitude
Rises 19:06:32 0° 197° (SSW) 2,836 6.4 -11.5°
Reaches altitude 10° 19:08:45 10° 201° (SSW) 1,943 5.6 -11.8°
Maximum altitude 19:13:00 60° 282° (WNW) 696 3.6 -12.4°
Drops below altitude 10° 19:17:20 10° 3° (N) 1,979 6.0 -13.1°
Sets 19:19:36 0° 7° (N) 2,893 6.8 -13.4°
